Custer, SD

4:38 PM MDT on April 25, 2017 (GMT -0600)
Custer County

Weather History for KCUT - November, 2013

Change the Weather History Date:

Thursday, November 7, 2013

  Actual Average Record
Temperature  
Mean Temperature 31 °F 35 °F  
Max Temperature 41 °F 46 °F 71 °F (1980)
Min Temperature 20 °F 25 °F 1 °F (1991)
Degree Days  
Heating Degree Days 34 30  
Month to date heating degree days 240 199  
Since 1 July heating degree days 1368 1378  
Cooling Degree Days 0 0  
Month to date cooling degree days 0 0  
Year to date cooling degree days 187 177  
Moisture  
Dew Point 22 °F    
Average Humidity 65    
Maximum Humidity 84    
Minimum Humidity 45    
Precipitation  
Precipitation 0.00 in 0.02 in 0.45 in (1970)
Month to date precipitation 0.40 0.16  
Year to date precipitation 21.21 18.12  
Sea Level Pressure  
Sea Level Pressure 30.23 in    
Wind  
Wind Speed 5 mph (WSW)    
Max Wind Speed 12 mph    
Max Gust Speed 15 mph    
Visibility 10 miles    
Events      
T = Trace of Precipitation, MM = Missing Value Source: NWS Daily Summary

Daily Weather History Graph

Daily Weather History Graph

Search for Another Location

Airport or City:

Trip Planner

Search our weather history database for the weather conditions in past years. The results will help you decide how hot, cold, wet, or windy it might be!

Date:

Astronomy

Nov. 07, 2013 Rise Set
Actual Time 6:38 AM MST 4:37 PM MST
Civil Twilight 6:08 AM MST 5:07 PM MST
Nautical Twilight 5:33 AM MST 5:41 PM MST
Astronomical Twilight 5:00 AM MST 6:15 PM MST
Moon 10:50 AM MST (11/7) 8:50 PM MST (11/7)
Length of Visible Light 10h 59m
Length of Day
9h 58m
Waxing Crescent, 23% of the Moon is Illuminated
Nov 7
Waxing Crescent
Nov 9
First Quarter
Nov 17
Full
Nov 25
Last Quarter
Dec 2
New

Hourly Weather History & Observations

Time (MST) Temp. Windchill Dew Point Humidity Pressure Visibility Wind Dir Wind Speed Gust Speed Precip Events Conditions
12:53 AM 21.0 °F 14.6 °F 15.1 °F 78% 30.37 in 10.0 mi SW 4.6 mph - N/A   Partly Cloudy
1:53 AM 23.0 °F 15.8 °F 16.0 °F 74% 30.36 in 10.0 mi West 5.8 mph - N/A   Clear
2:53 AM 21.9 °F 14.5 °F 17.1 °F 82% 30.38 in 10.0 mi WSW 5.8 mph - N/A   Partly Cloudy
3:53 AM 23.0 °F 15.8 °F 18.0 °F 81% 30.40 in 10.0 mi West 5.8 mph - N/A   Clear
4:53 AM 24.1 °F 17.0 °F 19.0 °F 81% 30.39 in 10.0 mi West 5.8 mph - N/A   Overcast
5:53 AM 25.0 °F 17.1 °F 19.9 °F 81% 30.39 in 10.0 mi West 6.9 mph - N/A   Overcast
6:53 AM 27.0 °F 20.5 °F 19.9 °F 75% 30.39 in 10.0 mi WSW 5.8 mph - N/A   Overcast
7:53 AM 28.9 °F 21.9 °F 19.9 °F 69% 30.38 in 10.0 mi WSW 6.9 mph - N/A   Overcast
8:53 AM 32.0 °F 24.8 °F 21.9 °F 66% 30.37 in 10.0 mi WSW 8.1 mph - N/A   Mostly Cloudy
9:53 AM 35.1 °F 27.9 °F 21.9 °F 59% 30.35 in 10.0 mi WSW 9.2 mph - N/A   Mostly Cloudy
10:53 AM 37.0 °F 30.4 °F 21.0 °F 52% 30.33 in 10.0 mi WNW 9.2 mph - N/A   Overcast
11:53 AM 39.0 °F 34.0 °F 21.0 °F 49% 30.31 in 10.0 mi WSW 6.9 mph - N/A   Clear
12:53 PM 41.0 °F 37.1 °F 21.9 °F 47% 30.27 in 10.0 mi West 5.8 mph - N/A   Clear
1:53 PM 39.9 °F 33.9 °F 21.9 °F 49% 30.24 in 10.0 mi West 9.2 mph - N/A   Clear
2:53 PM 39.9 °F 36.7 °F 23.0 °F 51% 30.22 in 10.0 mi SW 4.6 mph - N/A   Clear
3:53 PM 37.9 °F 35.5 °F 21.9 °F 53% 30.20 in 10.0 mi South 3.5 mph - N/A   Clear
4:53 PM 34.0 °F - 21.9 °F 61% 30.19 in 10.0 mi Calm Calm - N/A   Clear
5:53 PM 30.9 °F - 21.9 °F 69% 30.17 in 10.0 mi Calm Calm - N/A   Clear
6:53 PM 34.0 °F 29.8 °F 25.0 °F 70% 30.11 in 10.0 mi SSW 4.6 mph - N/A   Clear
7:53 PM 35.1 °F 29.3 °F 27.0 °F 72% 30.06 in 10.0 mi SSW 6.9 mph - N/A   Clear
8:53 PM 35.1 °F 31.0 °F 28.0 °F 76% 30.01 in 10.0 mi SSW 4.6 mph - N/A   Clear
9:53 PM 35.1 °F - 28.0 °F 76% 29.94 in 10.0 mi Calm Calm - N/A   Clear
10:53 PM 36.0 °F 32.1 °F 27.0 °F 70% 29.87 in 10.0 mi WSW 4.6 mph - N/A   Clear
11:53 PM 37.0 °F 33.3 °F 26.1 °F 65% 29.81 in 10.0 mi WSW 4.6 mph - N/A   Clear